Location: ??????
(30.5519°N, 47.7720°E)
Time: 07:07:09
(UTC+00:00)

Milstar 3 - Visible Passes

Search period start: 11 May 2021 00:00
Search period end: 21 May 2021 00:00
Orbit: 1089 x 5155 km, 28.3° (Epoch: 08 May)

Date Brightness Start Highest point End Pass type
(mag) Time Alt. Az. Time Alt. Az. Time Alt. Az.
11 May 4.3 16:35:47 10° WSW 16:54:58 64° SSE 17:03:34 15° E visible
11 May 3.9 19:28:25 10° W 19:37:11 50° WSW 19:37:11 50° WSW visible
12 May 4.9 15:29:36 10° SW 15:51:57 57° SSE 16:03:09 10° E visible
12 May 3.4 18:23:34 10° W 18:38:04 79° S 18:39:32 67° ESE visible
13 May 4.8 00:07:59 11° S 00:07:59 11° S 00:08:33 10° S visible
13 May 4.0 17:17:49 10° WSW 17:35:46 75° S 17:41:51 27° E visible
13 May 4.6 20:09:58 10° W 20:15:27 31° W 20:15:27 31° W visible
14 May 4.5 16:11:25 10° WSW 16:32:59 70° SSE 16:43:30 10° E visible
14 May 3.5 19:05:33 10° W 19:17:43 72° SW 19:17:43 72° SW visible
15 May 3.7 18:00:09 10° W 18:16:29 80° S 18:19:58 46° E visible
15 May 5.2 20:51:22 10° W 20:53:33 17° W 20:53:33 17° W visible
16 May 4.2 16:53:49 10° WSW 17:13:56 79° S 17:22:10 18° E visible
16 May 4.1 19:47:21 10° W 19:55:45 44° WSW 19:55:45 44° WSW visible
17 May 4.8 15:46:52 10° WSW 16:10:50 74° SSE 16:22:24 10° E visible
17 May 3.4 18:42:24 10° W 18:57:07 77° S 18:57:56 72° SSE visible
18 May 4.0 17:36:26 10° W 17:54:47 81° S 18:00:06 34° E visible
18 May 4.9 20:29:02 10° W 20:33:40 25° W 20:33:40 25° W visible
19 May 4.5 16:29:34 10° W 16:51:57 81° S 17:02:14 12° E visible
19 May 3.8 19:24:28 10° W 19:35:49 57° WSW 19:35:49 57° WSW visible
20 May 3.6 18:18:57 10° W 18:35:29 76° SSW 18:37:55 57° SE visible
20 May 5.5 21:10:54 10° W 21:11:30 11° W 21:11:30 11° W visible
